GFSSE_500_spd_132.txt.gz
Wind_Speed
20 19 16 15 14 12 11 11 12 12 11 11 10 10 9 8 7 7 5 4 4 4 4 4 5 6 7 7 8 8 8 9 9 10 10 11 11 13 15 17 19 21 22
23 22 20 18 17 16 14 13 13 13 13 13 12 11 10 9 8 7 6 4 3 3 3 4 4 4 5 5 6 7 8 8 8 10 10 10 10 12 14 17 19 21 23
24 26 24 22 21 19 18 16 14 13 13 14 13 11 10 9 7 7 6 5 5 5 5 5 5 4 4 5 5 6 7 8 9 9 9 8 8 11 14 16 18 21 22
27 26 27 26 25 23 22 20 17 15 15 14 13 12 9 8 8 8 8 7 6 7 6 7 6 6 5 4 5 6 5 6 6 7 7 5 6 9 11 15 18 20 21
31 28 29 28 28 28 26 24 20 19 17 16 15 14 11 10 9 8 9 8 7 6 6 8 6 6 6 5 5 6 6 6 5 6 5 3 5 8 11 14 17 19 19
35 33 29 30 31 30 30 29 25 23 21 19 17 17 14 12 11 9 9 8 8 7 7 7 6 6 5 6 7 7 7 7 6 5 2 1 4 7 10 13 16 18 18
38 36 33 30 31 32 33 31 30 26 24 22 20 19 18 15 13 10 9 8 8 8 8 6 6 7 8 8 7 6 6 6 5 3 2 2 4 7 11 14 17 17 17
40 40 32 35 32 33 34 35 33 31 28 26 24 22 21 19 16 14 11 9 8 8 8 6 5 5 6 5 5 5 4 4 3 3 4 6 8 9 12 14 15 16 16
38 40 38 34 35 34 35 38 36 35 34 30 27 25 24 23 21 18 14 12 10 9 9 6 6 6 5 6 5 6 6 4 5 5 8 10 11 12 14 14 15 14 14
38 41 39 40 36 37 33 37 40 38 38 35 32 29 28 26 25 22 19 15 13 12 11 8 8 8 7 7 7 7 9 9 9 9 9 11 12 13 13 13 13 14 13
39 38 44 45 40 36 40 39 41 41 40 39 35 33 30 29 29 25 22 19 16 16 13 12 12 11 10 10 11 12 12 12 13 14 13 13 13 14 14 13 13 14 14
43 46 41 49 41 39 41 45 44 37 42 42 38 36 34 33 31 29 26 22 19 19 16 15 15 15 13 12 13 13 14 14 14 16 16 16 15 15 14 15 15 13 14
42 48 52 48 49 45 43 47 51 45 49 44 41 38 36 34 33 31 28 25 22 22 19 18 19 18 16 15 15 15 15 16 17 17 18 18 18 17 17 17 16 16 15
46 45 54 54 54 52 54 50 60 21 43 44 45 40 38 37 35 32 30 27 23 24 23 21 21 20 18 17 17 16 16 17 17 18 19 20 21 20 20 20 18 17 17
46 49 50 51 56 60 60 53 57 51 44 45 47 42 40 38 36 33 30 27 25 25 25 24 23 21 20 18 17 17 17 18 19 19 20 21 22 23 23 23 21 20 19
40 41 43 45 45 55 60 56 53 49 54 47 48 44 42 39 36 34 32 28 26 26 26 24 23 22 21 20 19 18 18 18 19 21 23 24 24 25 24 23 23 23 24
33 35 35 37 38 39 53 59 24 43 40 40 50 44 43 40 38 35 32 29 27 27 26 24 24 23 22 21 19 19 19 21 22 22 23 24 24 25 26 25 26 26 27
35 33 31 31 28 32 42 52 39 34 39 45 49 46 43 40 38 36 32 29 27 26 25 25 24 23 21 20 20 20 21 22 23 23 23 24 24 25 26 29 29 29 28
30 33 30 30 31 24 36 44 55 38 36 34 45 46 41 38 36 34 32 30 29 28 28 26 24 23 22 22 21 22 23 24 26 27 28 29 29 29 30 30 31 32 33
29 28 31 27 27 20 23 46 38 39 47 34 41 46 38 36 36 35 34 32 31 30 29 27 25 25 24 24 25 26 27 29 30 31 33 34 34 34 32 32 34 35 35
29 24 25 24 23 19 19 34 33 22 42 41 39 43 40 35 34 35 39 34 35 34 30 27 26 26 27 28 30 30 31 32 33 36 37 38 35 34 34 35 35 35 35
24 22 21 21 22 15 12 29 24 21 22 29 37 35 45 41 36 37 36 33 34 33 30 29 28 28 30 32 32 33 33 34 37 39 39 41 40 40 39 38 37 35 33
21 20 18 20 21 17 17 17 15 20 19 16 21 26 40 39 42 38 36 38 37 34 32 30 31 34 33 33 33 33 35 37 38 39 43 45 44 43 39 37 39 38 39
15 19 15 17 17 18 16 19 14 20 22 21 20 27 35 34 36 40 44 42 34 33 34 35 35 36 35 34 34 38 40 40 39 39 39 40 41 42 42 44 44 42 45
11 16 14 15 15 18 13 13 15 19 24 18 24 30 27 29 48 44 42 40 36 38 40 37 37 35 36 38 40 41 41 42 41 41 44 47 46 45 45 44 42 45 46
12 15 14 14 14 16 16 16 17 17 22 27 30 22 28 21 25 41 43 39 34 31 28 33 35 38 39 40 42 41 42 42 43 42 42 44 45 44 41 41 44 46 47

GFSSE_500_spd_135.txt.gz
Wind_Speed
19 20 19 17 15 14 12 12 11 11 11 11 10 9 7 6 5 4 4 3 3 2 1 0 2 2 3 4 6 6 7 8 8 9 9 9 10 12 13 15 18 20 22
23 22 23 21 19 18 16 15 14 13 12 11 12 11 10 8 7 7 6 5 4 3 2 1 1 1 1 2 4 5 6 8 7 7 8 8 8 10 12 15 18 20 22
26 26 26 25 25 23 21 18 16 15 14 13 13 12 11 11 10 8 8 7 6 4 4 4 3 2 2 1 2 3 4 5 5 6 6 6 7 9 11 15 18 21 21
28 28 27 28 27 26 24 22 19 17 16 14 14 14 13 12 11 10 9 9 8 7 6 5 5 4 4 3 2 2 3 3 3 4 4 4 6 7 11 14 18 21 21
32 30 29 29 30 29 27 26 23 22 20 17 16 15 14 13 11 11 10 10 8 7 6 6 5 4 4 4 4 2 3 2 2 3 2 2 3 6 10 13 17 20 20
37 35 32 31 31 31 31 29 27 25 23 21 19 17 16 15 13 12 12 11 10 9 8 7 6 5 4 3 5 5 5 4 2 2 1 1 3 6 10 13 16 18 18
39 40 35 35 32 32 32 32 31 29 27 24 22 19 18 17 15 14 13 12 10 10 9 8 7 6 6 5 5 5 4 4 3 2 2 1 4 8 11 14 15 16 16
41 42 39 38 36 34 31 33 32 33 31 29 26 23 20 19 18 17 15 14 11 11 9 9 9 7 6 5 3 2 2 3 3 2 3 3 5 9 12 13 14 15 14
40 42 43 40 38 32 34 32 33 34 34 33 31 28 24 22 22 20 18 16 14 11 10 9 10 9 8 7 5 4 3 3 5 5 6 7 9 10 12 14 14 14 13
38 42 42 44 43 37 34 39 32 35 36 36 36 33 29 26 25 24 21 19 16 14 12 11 11 10 9 8 7 6 6 6 7 9 10 10 11 13 13 13 14 14 12
35 38 39 40 38 33 33 34 39 34 34 39 39 38 33 30 28 27 24 23 20 16 15 14 13 12 12 11 10 9 9 10 10 12 13 13 13 14 14 14 14 13 12
39 37 40 44 43 42 38 33 33 40 40 35 44 42 40 36 32 29 27 25 24 21 18 16 15 14 14 13 12 11 11 12 12 12 14 14 15 15 16 16 17 15 13
40 39 37 38 44 44 43 44 39 43 43 43 39 50 44 40 34 32 31 27 27 24 22 20 18 16 16 16 15 13 12 13 13 14 15 16 16 17 17 17 18 17 17
41 40 40 41 42 51 46 49 55 47 41 45 40 49 47 42 37 35 31 30 29 26 25 23 21 19 19 18 17 15 14 14 14 15 15 17 18 18 19 19 19 19 18
42 42 41 41 44 47 50 47 55 55 42 40 45 38 46 46 41 37 33 31 31 30 28 25 23 21 21 20 19 18 16 15 15 16 17 18 19 20 21 21 21 20 19
33 40 43 44 45 49 47 50 53 57 57 57 59 52 52 47 44 39 35 32 33 32 30 27 24 22 21 20 19 18 17 16 17 17 19 21 21 22 22 21 22 22 22
33 33 36 38 39 47 52 48 52 56 57 60 51 53 48 50 48 41 36 34 33 31 30 27 25 22 22 21 20 19 18 18 18 18 21 22 22 23 22 21 22 22 22
34 34 33 34 36 37 41 40 50 44 57 46 41 39 44 46 47 40 35 33 33 31 29 28 25 24 23 22 22 21 21 20 20 21 22 24 25 25 25 25 24 25 24
35 30 31 35 34 33 31 34 35 32 50 52 41 49 52 47 48 40 35 33 33 31 30 29 27 26 25 25 24 23 23 22 23 23 25 27 28 28 29 30 30 29 28
31 32 30 30 33 31 28 29 27 34 45 60 34 40 46 46 45 39 34 33 32 32 32 32 30 28 26 26 26 26 25 25 26 26 28 30 31 32 34 32 31 30 29
25 28 30 25 30 27 25 23 21 25 30 58 40 41 43 39 40 39 36 34 36 37 36 35 32 28 28 28 28 27 27 28 29 30 32 33 35 36 37 36 35 35 36
22 22 25 21 27 27 21 20 15 13 29 45 33 42 43 43 40 39 38 40 38 37 35 35 34 31 31 30 29 28 29 31 32 33 33 35 36 36 40 40 40 39 37
18 18 18 21 25 23 20 16 8 15 13 23 35 31 38 40 40 38 38 40 39 36 38 36 34 32 32 31 29 31 33 35 35 37 37 38 37 38 38 39 38 40 39
18 18 19 20 21 22 20 14 12 16 13 19 26 26 35 33 36 37 38 44 35 36 39 36 34 33 31 31 34 34 37 38 41 42 41 41 40 41 41 41 43 42 44
18 19 17 21 24 24 24 18 15 16 22 20 23 15 23 25 29 43 42 36 39 37 37 34 35 35 35 34 36 38 41 42 42 44 43 46 43 41 45 44 43 44 47
15 17 17 20 18 21 20 15 18 20 20 23 23 23 28 27 27 44 45 38 43 41 39 38 35 36 38 39 39 39 41 42 45 46 47 46 46 46 48 49 50 44 44

GFSSE_500_spd_138.txt.gz
Wind_Speed
19 22 21 19 18 17 16 17 17 16 15 14 13 12 12 11 10 8 7 6 5 5 4 4 3 3 3 3 4 5 5 5 6 6 6 8 7 8 9 14 17 21 23
23 22 24 24 23 21 19 18 18 17 16 16 15 13 13 13 12 10 9 8 7 7 6 5 3 3 3 3 3 4 4 4 4 5 5 6 6 7 11 15 19 22 22
26 26 25 26 28 25 22 20 19 19 18 18 16 15 14 14 13 13 12 11 11 9 8 6 5 4 3 3 3 3 2 2 3 4 4 5 5 7 11 15 18 21 22
29 28 29 27 29 30 27 24 22 20 20 20 18 16 15 15 15 14 14 13 12 10 8 7 6 6 5 4 3 2 1 0 1 1 2 3 4 6 11 14 17 20 22
34 34 32 32 30 31 31 28 25 23 21 21 20 18 17 16 16 16 16 15 13 11 9 8 7 8 7 6 5 3 2 2 2 1 0 1 2 5 10 13 16 17 19
35 38 37 34 32 34 33 32 29 26 24 23 21 20 18 18 17 18 18 16 14 12 10 9 8 8 8 7 6 4 3 3 5 3 2 1 1 5 8 12 14 16 17
37 39 41 40 34 34 36 33 33 30 27 26 24 23 21 20 19 19 19 17 15 13 12 11 10 10 9 8 6 5 3 3 3 4 3 2 2 6 9 11 13 14 14
38 40 41 43 38 35 36 36 35 34 32 30 28 26 24 22 22 21 20 17 16 15 14 13 12 11 10 9 7 6 5 3 2 3 3 4 5 7 9 10 11 12 13
38 39 42 42 42 37 34 33 36 37 36 34 32 30 27 26 24 24 22 18 17 16 15 14 13 12 11 9 8 7 6 5 4 3 4 6 8 8 10 12 12 12 12
38 37 41 43 44 37 38 31 30 35 38 39 38 36 32 30 28 27 26 22 18 17 16 15 13 13 12 11 9 8 7 6 6 5 6 8 10 12 12 12 13 13 13
37 37 37 43 44 37 42 39 33 37 33 42 43 41 36 34 32 31 30 26 22 19 17 16 15 14 14 12 11 10 9 9 9 8 9 10 11 12 12 12 13 14 14
39 40 40 41 43 40 35 36 39 39 43 38 46 40 40 39 37 34 33 30 27 23 20 18 16 15 16 14 13 13 12 11 10 10 10 11 11 12 13 14 14 14 14
43 42 40 41 43 44 47 39 40 39 32 42 43 35 47 43 39 37 36 34 30 26 23 20 18 18 17 16 15 14 14 13 11 10 10 11 11 12 13 14 15 15 14
35 41 44 40 43 43 44 46 47 47 52 31 23 39 41 48 42 41 37 36 32 28 26 23 21 20 18 17 17 17 17 15 13 12 11 12 12 13 13 14 15 16 16
30 34 42 43 41 44 43 43 50 51 56 54 35 28 36 32 43 46 41 38 34 32 28 26 24 23 21 20 19 19 19 17 16 14 13 13 14 15 15 15 15 15 15
33 31 34 42 44 41 43 45 44 50 57 56 58 55 29 31 39 53 41 40 36 34 31 29 27 25 24 22 21 21 20 19 18 16 15 15 15 16 17 17 17 17 18
35 33 33 36 41 43 44 42 44 45 47 55 56 63 59 36 32 44 45 41 38 35 34 31 29 27 25 24 23 23 22 21 20 19 18 18 17 17 18 20 20 20 21
38 36 34 33 37 41 42 40 40 42 46 48 47 51 50 48 38 45 47 44 40 37 35 34 32 30 28 26 25 24 24 24 23 22 21 20 20 20 22 24 24 25 26
37 37 36 33 34 37 38 36 36 40 42 46 45 44 49 44 48 49 51 48 42 39 36 34 32 30 29 27 27 26 26 25 25 24 24 23 22 23 25 26 28 29 28
38 34 36 35 33 34 36 33 33 33 35 43 42 40 43 44 49 53 46 48 43 39 37 34 33 32 30 29 28 28 28 28 28 27 25 26 27 28 28 29 32 32 31
28 31 33 35 30 30 32 31 30 28 27 32 36 35 43 38 49 52 45 47 44 40 38 36 34 32 32 32 31 30 29 29 30 29 29 29 30 31 32 32 34 34 34
21 28 31 29 28 26 30 27 25 22 19 27 29 33 38 38 47 48 46 45 43 40 36 34 33 34 34 32 33 32 31 32 33 32 33 33 34 33 34 35 37 35 36
17 25 23 26 27 27 28 23 21 19 11 10 22 30 35 35 43 47 49 49 46 40 34 34 35 37 35 36 35 33 33 33 35 35 36 37 38 36 36 41 38 39 38
18 21 25 26 23 26 26 25 24 22 16 15 14 18 34 46 43 44 42 40 40 40 36 38 39 38 37 35 35 35 35 35 37 38 39 39 40 41 41 39 42 45 42
19 22 24 20 23 27 29 27 24 23 17 27 38 27 35 37 48 40 37 37 37 36 39 40 39 38 37 37 37 36 37 38 39 39 42 42 42 45 43 44 45 46 46
15 16 15 18 22 26 29 30 24 15 15 19 42 24 39 43 46 41 38 44 41 40 39 40 42 40 39 39 37 38 41 41 42 43 42 42 45 46 47 46 48 50 50

GFSSE_500_spd_141.txt.gz
Wind_Speed
21 18 19 20 20 19 18 17 17 20 20 19 17 16 15 13 12 12 10 9 7 6 5 5 4 3 2 2 2 2 3 4 4 4 4 5 4 7 11 15 19 22 22
22 23 22 22 23 22 21 20 19 19 20 20 18 17 15 15 13 12 11 10 8 8 8 6 5 4 3 2 2 2 2 3 3 3 4 4 3 7 10 15 18 21 22
22 22 24 26 25 25 24 24 22 21 21 21 21 19 18 16 15 14 13 12 11 11 10 9 7 5 5 4 4 3 2 1 1 2 3 3 3 5 9 14 17 19 21
26 27 27 27 27 29 27 27 26 24 23 22 22 21 20 19 17 16 15 14 14 14 12 10 9 7 7 6 5 5 4 2 1 2 1 1 1 5 9 13 16 18 19
31 31 32 31 30 29 31 30 29 27 26 24 23 23 23 21 20 18 17 16 16 16 15 12 10 8 8 8 8 7 5 4 2 1 1 1 2 5 9 13 15 17 18
36 35 36 37 33 32 32 33 32 31 29 28 24 23 23 23 22 21 19 19 18 18 16 14 11 9 8 9 9 7 6 5 4 2 3 3 2 6 9 13 15 16 17
41 41 41 39 38 36 35 34 35 33 32 31 28 25 24 24 24 22 22 21 20 19 17 15 12 11 9 9 9 8 8 5 5 4 4 3 2 6 10 12 14 15 15
41 44 44 42 40 40 37 35 36 36 35 34 32 29 27 25 25 24 23 22 22 20 18 17 14 12 11 11 10 10 8 5 4 4 3 3 4 6 9 11 12 13 14
40 43 44 45 41 41 38 36 36 37 38 38 37 34 31 28 27 26 25 24 23 22 20 18 17 15 14 12 12 11 8 6 5 4 3 4 5 7 10 11 11 12 13
41 43 45 45 43 42 42 37 33 34 38 39 39 38 35 33 31 30 28 28 26 23 22 20 17 17 17 15 14 12 10 8 6 6 6 6 7 9 10 11 12 12 12
41 43 43 42 42 43 42 36 40 34 30 38 40 39 41 39 36 34 31 31 29 26 24 21 19 18 17 16 15 13 12 10 8 8 9 8 8 9 10 10 10 11 11
42 41 42 40 41 40 40 35 37 42 38 35 40 49 45 45 41 37 34 33 31 29 25 23 20 20 18 18 16 14 13 11 10 9 9 8 8 9 9 9 10 10 11
42 41 41 41 41 43 42 44 49 36 45 42 48 44 50 50 44 40 37 35 34 31 27 25 23 21 19 18 17 16 14 12 11 11 9 7 8 9 10 11 11 11 11
40 42 42 42 44 44 43 43 47 42 45 50 34 25 30 47 45 41 40 38 36 33 30 27 24 23 21 20 18 16 14 13 13 13 11 9 10 10 11 13 13 13 13
39 41 41 41 42 47 46 44 44 52 46 53 57 39 34 34 38 46 41 39 39 36 33 28 25 23 22 21 19 18 17 16 16 15 14 13 12 12 13 13 13 14 14
43 42 42 41 41 43 46 45 46 43 50 50 54 52 46 36 32 45 44 43 40 39 36 33 30 27 25 23 22 20 19 18 18 18 17 17 16 15 15 14 15 15 15
44 45 44 43 42 43 44 46 45 45 44 49 50 50 52 55 43 31 28 45 41 42 38 35 32 30 28 26 24 22 21 21 21 21 21 20 19 18 17 17 18 17 17
42 44 44 44 43 41 43 45 45 43 42 44 42 48 47 55 59 42 44 38 48 42 39 37 35 33 31 28 26 23 23 23 24 24 24 23 22 20 20 20 21 20 21
44 42 41 42 41 41 40 41 44 41 40 40 39 38 39 40 43 57 57 37 48 43 41 38 37 34 30 28 27 26 27 27 26 26 26 26 25 25 24 24 25 24 25
44 39 39 38 39 38 37 37 39 40 39 39 38 36 36 36 32 43 48 53 31 48 42 38 36 34 32 30 30 28 28 27 28 28 29 28 28 28 28 27 28 28 28
30 27 33 37 35 35 34 32 34 36 36 34 37 34 34 32 28 28 32 41 42 42 51 43 38 35 33 33 32 31 31 31 28 29 30 31 31 31 32 31 30 31 31
8 14 24 33 31 31 29 30 30 31 30 29 30 27 31 29 26 27 27 39 45 45 50 42 36 36 34 35 34 33 31 31 31 31 33 34 34 35 35 34 34 35 34
2 7 16 22 24 29 29 29 25 27 24 28 26 24 26 24 24 30 32 30 39 49 46 38 37 36 36 37 35 35 33 33 33 35 35 37 37 38 38 38 38 38 39
3 7 15 19 25 31 27 23 24 23 29 32 26 21 25 29 23 21 28 34 43 43 42 41 37 37 36 36 34 34 37 35 37 37 38 38 39 40 40 42 43 41 41
3 8 13 19 24 23 24 25 28 27 32 24 25 35 30 27 24 24 30 36 45 43 40 41 38 37 37 34 36 39 37 38 39 37 41 39 42 42 43 44 47 44 45
3 5 11 16 19 23 26 29 31 30 35 14 25 36 34 32 16 21 26 32 42 45 43 43 42 40 38 36 41 40 41 42 41 42 42 42 45 45 46 47 49 48 47

GFSSE_500_spd_147.txt.gz
Wind_Speed
10 10 11 12 13 14 13 14 15 15 16 17 18 17 16 17 15 14 13 12 10 8 8 8 4 3 3 1 1 2 2 2 2 1 2 2 4 8 12 16 18 16 15
9 10 11 10 12 15 16 17 17 18 18 17 19 19 19 18 18 16 15 13 12 10 10 9 5 5 5 4 3 3 2 1 0 1 2 0 3 6 11 14 17 17 16
9 11 13 14 14 14 15 18 21 21 21 20 20 20 20 19 18 19 17 16 14 12 10 10 9 8 7 7 6 5 4 3 2 2 2 0 2 4 9 13 16 17 15
12 13 15 15 16 18 19 19 21 23 24 24 23 22 21 21 20 20 19 18 17 15 13 13 13 11 10 9 8 7 5 5 4 3 2 1 2 4 8 11 14 15 14
15 18 19 20 20 21 23 24 24 25 25 27 26 26 23 23 23 23 21 20 20 18 17 16 16 14 12 11 10 9 7 6 5 4 3 2 2 4 7 10 12 13 13
20 23 24 25 25 26 26 28 30 30 28 28 29 29 28 26 26 25 24 23 22 22 20 20 19 17 15 13 11 11 8 7 6 5 4 2 2 3 6 9 11 12 12
22 26 28 29 30 31 31 31 32 34 35 31 31 31 31 30 28 28 27 26 25 24 23 23 22 21 19 15 12 10 10 9 8 7 5 3 2 2 6 8 9 10 10
25 28 29 29 31 31 32 33 32 34 36 37 34 34 33 33 31 30 29 28 28 26 26 25 25 24 21 16 14 12 13 9 9 8 6 5 2 3 5 7 8 8 8
29 28 30 30 32 33 37 33 36 36 37 39 38 37 37 35 36 33 31 30 29 28 27 27 28 27 22 19 15 15 14 13 10 9 7 6 3 3 4 5 7 8 8
34 36 35 35 35 36 38 38 38 38 38 39 40 38 39 38 38 37 35 32 31 30 29 29 30 29 25 21 17 18 16 15 12 10 9 6 4 3 2 3 5 6 7
38 40 40 39 38 39 39 41 41 41 40 38 37 40 42 40 41 40 39 36 34 33 32 31 31 29 27 23 18 21 17 17 13 11 9 7 5 4 4 3 5 6 7
41 43 44 42 41 41 42 43 43 43 40 40 43 37 40 43 42 42 42 40 38 35 34 32 32 29 28 24 20 23 19 18 15 12 10 8 7 6 6 5 6 7 8
41 45 45 45 45 45 44 43 45 44 39 40 43 48 38 36 48 49 46 43 41 38 37 36 32 30 29 25 20 25 20 19 17 14 12 9 9 9 8 8 8 8 8
38 43 47 49 49 48 48 45 44 44 41 38 40 47 48 45 32 51 46 46 46 40 40 36 33 30 29 25 21 24 21 20 19 16 14 12 11 12 11 11 11 11 10
43 44 44 47 50 50 48 48 46 45 44 47 47 40 46 51 23 34 43 47 47 48 45 39 36 34 32 24 21 24 22 22 20 18 16 15 14 14 14 13 13 13 13
44 48 48 47 48 50 49 48 48 46 44 48 53 54 35 49 61 23 27 31 52 47 49 43 40 36 32 25 24 27 25 23 21 20 18 17 17 17 17 17 15 16 16
48 49 47 43 41 44 47 47 47 48 47 50 50 49 54 35 47 47 24 40 34 45 35 46 41 37 33 28 27 28 26 25 24 22 19 18 19 19 19 19 19 18 19
43 41 42 44 46 45 46 47 45 48 45 47 51 49 44 45 38 55 49 36 31 41 44 37 39 35 34 31 28 30 30 28 25 23 22 21 21 21 22 22 20 21 21
43 42 44 48 49 44 44 46 46 44 47 44 44 45 47 39 34 31 38 43 26 20 28 40 33 34 34 33 31 32 32 29 27 26 24 22 23 24 24 23 23 24 24
41 43 44 39 42 44 35 41 42 43 43 42 41 39 41 35 31 27 23 41 45 37 14 31 37 35 35 35 34 33 33 32 30 27 27 25 26 26 26 25 26 26 26
36 37 32 31 33 25 26 34 35 35 37 37 34 33 36 31 25 26 21 27 41 28 27 22 19 19 40 36 36 35 36 33 31 29 28 28 28 28 27 26 28 28 28
32 30 26 26 13 7 18 24 29 34 33 33 30 28 32 28 29 26 19 21 26 32 48 22 17 20 14 40 38 39 36 33 33 32 31 31 30 28 27 27 28 30 30
27 24 22 16 4 2 10 16 21 25 27 27 25 28 29 26 24 23 21 21 22 20 19 16 16 19 19 28 49 41 39 36 35 34 35 32 31 29 28 28 29 31 33
22 19 17 14 3 4 6 11 17 20 22 24 22 25 27 25 24 23 22 21 20 19 20 20 19 18 28 31 42 46 40 38 37 36 36 34 32 29 31 31 32 31 33
18 15 13 10 7 1 5 9 17 20 21 22 22 25 26 27 26 25 24 19 19 23 27 28 24 17 27 38 39 46 46 40 35 39 38 34 33 32 34 35 34 34 35
17 12 11 9 4 2 4 10 14 14 16 21 23 28 29 29 29 31 31 32 24 27 25 30 32 39 31 33 43 43 45 48 40 35 37 35 34 34 36 36 38 39 39